User: anonymous   Login
Location: Caltech
(34.1382°N, 118.1253°W)
Time: 18:47:50
(UTC-07:00)
Language:

OAO 2 Rocket - Orbit

View from above orbital plane
View from above orbital plane
View from above satellite
View from above satellite

Ground track
Ground track

The orbit data is extracted from the following two-line orbital elements,

1 03598U 68110B   15085.51780425  .00000760  00000-0  17997-3 0  9991
2 03598 034.9927 250.9957 0048890 109.0990 251.5005 14.53965253447977
Epoch (UTC): 26 March 2015 12:25:38
Eccentricity: 0.0048890
inclination: 34.9927°
perigee height: 678 km
apogee height: 747 km
right ascension of ascending node: 250.9957°
argument of perigee: 109.0990°
revolutions per day: 14.53965253
mean anomaly at epoch: 251.5005°
orbit number at epoch: 44797

The dashed part of the orbit path shows where the satellite is in the earth's shadow,  

DLR